#timestamp,LO_Frequency,Hit,StdDev 
1686859215.5,286047000.7,N
1686859235.3,286046998.2,N
1686859255.2,286046998.2,N
1686859275.9,286047000.5,N
1686859295.7,286046998.7,N
1686859315.6,286047000.8,N
1686859335.4,286047000.7,N
1686859355.2,286046998.1,N
1686859375.1,286046998.7,N
1686859376.0,286046998.7,N
1686859395.8,286046998.2,N
1686859415.7,286046998.7,N
1686859435.5,286047000.7,N
1686859455.4,286047000.7,N
1686859475.2,286047000.8,N
1686859495.0,286047001.0,N
1686859495.9,286047001.0,N
1686859515.8,286047000.5,N
1686859535.6,286047000.0,N
1686859555.4,286047000.6,N
1686859575.3,286047000.4,N
1686859595.1,286047000.0,N
1686859615.9,286046999.9,N
1686859635.7,286046999.9,N
1686859655.5,286046999.8,N
1686859675.4,286047000.0,N
1686859695.2,286047000.6,N
1686859715.0,286047000.9,N
1686859716.0,286047000.9,N
1686859735.8,286047002.4,N
1686859755.6,286046999.9,N
1686859775.5,286047000.8,N
1686859795.3,286047000.9,N
1686859815.1,286047000.8,N
1686859835.9,286046999.9,N
1686859855.7,286046999.9,N
1686859875.6,286047001.1,N
1686859895.4,286047001.0,N
1686859915.2,286047001.0,N
1686859935.1,286047000.9,N
1686859936.0,286047000.9,N
1686859955.8,286047000.6,N
1686859975.7,286047000.7,N
1686859995.5,286046999.9,N
1686860015.3,286047001.1,N
1686860035.2,286047001.1,N
1686860055.9,286047001.0,N
1686860075.7,286047000.9,N
1686860095.6,286047000.7,N
1686860115.4,286046999.9,N
1686860135.2,286047001.2,N
1686860155.1,286046998.7,N
1686860156.0,286046998.7,N
1686860175.8,286046998.1,N
1686860195.7,286047001.2,N
1686860215.5,286047000.8,N
1686860235.3,286047000.8,N
1686860255.2,286047001.1,N
1686860275.0,286047001.2,N
1686860275.9,286047001.2,N
1686860295.8,286046999.3,N
1686860315.6,286046998.2,N
1686860335.4,286046998.1,N
1686860355.3,286046999.0,N
1686860375.1,286046999.0,N
1686860395.8,286046999.0,N
1686860415.7,286046999.2,N
1686860435.5,286046996.9,N
1686860455.4,286046997.0,N
1686860475.2,286046999.3,N
1686860495.0,286046998.9,N
1686860495.9,286046998.9,N
1686860515.8,286046996.5,N
1686860535.6,286046996.6,N
1686860555.5,286046996.9,N
1686860575.3,286046998.9,N
1686860595.1,286046999.2,N
1686860615.9,286046996.6,N
1686860635.7,286046999.0,N
1686860655.5,286046996.8,N
1686860675.4,286046995.0,Y
1686860695.2,286046999.6,P
1686860715.1,286046999.3,N
1686860716.0,286046999.3,N
1686860735.8,286046998.9,Y
1686860755.6,286046998.4,P
1686860775.5,286046998.3,P
1686860795.3,286046998.2,P
1686860815.1,286046999.5,N
1686860835.9,286046997.5,Y
1686860855.7,286046997.5,P
1686860875.6,286046997.5,P
1686860895.4,286046997.4,P
1686860915.3,286046997.3,Y
1686860935.1,286047000.6,P
1686860966.0,286047000.1,E
1686860975.0,286047000.3,N
1686860975.9,286047000.3,P
1686860995.8,286046998.1,P
1686861015.6,286046998.9,N
1686861035.5,286046998.6,N
1686861055.3,286046998.6,N
1686861075.1,286046999.0,N
1686861095.9,286046998.6,N
1686861115.7,286046999.7,N
1686861135.5,286046999.7,N
1686861155.4,286047002.8,Y
1686861175.2,286047002.5,P
1686861195.1,286047002.3,N
1686861196.0,286047002.3,N
1686861215.8,286046999.7,N
1686861235.6,286047000.1,N
1686861255.5,286047000.7,N
1686861275.3,286046998.3,N
1686861295.1,286046999.3,N
1686861315.9,286046998.4,N
1686861335.7,286046999.6,N
1686861355.6,286046999.2,N
1686861375.4,286046998.8,N
1686861395.2,286046999.6,N
1686861415.1,286046998.8,N
1686861416.0,286046998.8,N
1686861435.8,286046998.8,N
1686861455.6,286046999.4,N
1686861475.5,286046998.4,N
1686861495.3,286046998.2,N
1686861515.2,286047001.2,N
1686861535.9,286046998.5,N
1686861555.7,286046998.9,N
1686861575.6,286046998.9,N
1686861595.4,286046999.4,N
1686861615.2,286046999.1,N
1686861635.1,286046999.0,N
1686861636.0,286046999.0,N
1686861655.8,286046999.1,N
1686861675.7,286046999.3,N
1686861695.5,286046998.4,N
1686861715.3,286046999.6,N
1686861735.2,286046998.9,N
1686861755.0,286046999.1,N
1686861755.9,286046999.1,N
1686861775.8,286046999.5,N
1686861825.6,286046998.7,E
1686861835.5,286046998.9,N
1686861855.4,286047001.0,P
1686861875.2,286047000.8,N
1686861895.1,286047001.0,N
1686861896.0,286047001.0,N
1686861915.8,286046998.3,N
1686861935.6,286046998.2,N
1686861955.5,286046999.4,N
1686861975.3,286046998.8,N
1686861995.1,286047001.1,N
1686862015.9,286046998.5,N
1686862035.7,286047000.3,N
1686862055.6,286047000.6,N
1686862075.4,286047000.4,N
1686862095.2,286046998.4,N
1686862115.1,286046998.2,N
1686862116.0,286046998.2,N
1686862135.8,286046998.5,N
1686862155.6,286046999.2,N
1686862175.5,286046997.2,N
1686862195.3,286046997.1,N
1686862215.2,286046997.7,N
1686862235.9,286046997.0,N
1686862255.7,286046997.3,N
1686862275.6,286046996.7,N
1686862325.4,286046996.8,E
1686862335.4,286046998.2,N
1686862355.2,286047002.8,P
1686862375.0,286046999.7,N
1686862375.9,286046999.7,N
1686862395.8,286047000.1,N
1686862415.6,286047000.1,N
1686862435.4,286047000.1,N
1686862455.3,286047002.3,N
1686862475.1,286047002.2,N
1686862495.9,286047000.2,N
1686862515.7,286047002.7,N
1686862535.5,286047002.6,N
1686862555.4,286047001.6,N
1686862575.2,286047002.2,N
1686862595.0,286047002.3,N
1686862596.0,286047002.3,N
1686862615.8,286047002.2,N
1686862635.6,286047001.7,N
1686862655.5,286047001.5,N
1686862675.3,286047002.2,N
1686862695.1,286047002.6,N
1686862715.9,286046999.7,N
1686862735.7,286047001.6,N
1686862755.5,286047002.7,N
1686862775.4,286047001.9,N
1686862795.2,286047002.1,N
